sat.trackr.live / text

‹ back to catalog

STARLINK-34004

NORAD 63941 · 2025-098R

PAYLOAD ACTIVE UNKNOWN

§ Identity

Operator
Country
US
Launch date
2025-05-13
Launch site
AFWTR
Launch vehicle
Mass (kg)
RCS (m²)

Purposes: comms

External: N2YO · Heavens-Above · Gunter

§ Orbital elements

Epoch: 2026-05-25T03:05:47.004864Z

Period
96.11 min
Inclination
70.0004°
Eccentricity
0.0003248
Mean motion
14.98342629 rev/d
Perigee alt
569.8 km
Apogee alt
574.3 km
Semi-major
6,950.2 km
B*
4.6196e-4
RAAN
81.6645°
Arg perigee
267.1036°
Mean anomaly
92.9751°
Rev number
5,800

§ Raw data

STARLINK-340041 63941U 25098R   26145.12901626  .00005425  00000+0  46196-3 0  99962 63941  70.0004  81.6645 0003248 267.1036  92.9751 14.98342629 58002

JSON: /api/v1/satellites/63941 · /tle

For live sub-satellite position, see the globe view (requires WebGL).

§ Visibility from observer

Set your observer location to see the next 7 days of passes ≥ 10°. The values pass through the URL so the page stays shareable.

No JS? Fill the form by hand. The geolocation button needs JavaScript.